Group_ship,Cruise,JD_GMT,Date_DDMMYYYY,TIME_HH:MM:SS,Lat_dec_degree,Long_dec_degree,xCO2eq_ppm,xCO2a_ppm,Pres_Equi_hPa,Pres_sealevel_hPa,EqTemp_C,SST(TSG)_C,Sal(TSG)_Permil,Water_flow_l/min,Gasflow_IR_ml/min,Temp_IR_C,Pres_IR_hPa,Ship_heading_true_degree,Ship_speed_knot,Wind_dir_rel_degree,Wind_speed_rel_m/s,fCO2W@SST_uatm,Qcflag_water,fCO2a_uatm,Qcflag_air,dfCO2_uatm,Fluoro_ug/l,Wind_speed_true_m/s,Wind_dir_true_degree,Air_temp_C,Oxygen
AOML_Explorer,Ex0512E,80.0097,21032005,0:14:01,25.965,-79.697,350.75,-9,1016.47,1013.38,24.39,24.86,36.206,1.3,118.01,30.76,1016.47,61.1,25.5,352,19.56,346.5,2,-9,9,-9,0.12,6.53,52.57,21.42,-9
AOML_Explorer,Ex0512E,80.0115,21032005,0:16:34,25.974,-79.679,350.77,-9,1016.48,1013.42,24.59,25,36.188,1.33,118.62,30.77,1016.48,60.9,25.7,348,18.01,345.62,2,-9,9,-9,0.12,5.13,36.2,21.41,-9
AOML_Explorer,Ex0512E,80.0133,21032005,0:19:07,25.983,-79.662,351.03,-9,1016.41,1013.08,24.73,25.14,36.167,1.3,118.61,30.78,1016.41,61,25.8,347,19.56,345.65,2,-9,9,-9,0.11,6.67,36.97,21.41,-9
AOML_Explorer,Ex0512E,80.015,21032005,0:21:40,25.992,-79.644,351.55,-9,1016.43,1013.39,24.86,25.29,36.143,1.3,119.07,30.79,1016.43,61.1,25.9,345,20.59,346.3,2,-9,9,-9,0.11,7.78,34.52,21.45,-9
AOML_Explorer,Ex0512E,80.0168,21032005,0:24:13,26.001,-79.626,351.98,-9,1016.29,1013.65,24.99,25.34,36.148,1.31,118.65,30.8,1016.29,60.9,25.9,355,19.04,345.65,2,-9,9,-9,0.1,5.66,61.37,21.37,-9
AOML_Explorer,Ex0512E,80.0186,21032005,0:26:46,26.01,-79.608,352.33,-9,1016.64,1013.11,25.09,25.36,36.144,1.31,119.04,30.8,1016.64,61.5,25.9,345,20.59,344.99,2,-9,9,-9,0.11,7.77,33.91,21.43,-9
AOML_Explorer,Ex0512E,80.0204,21032005,0:29:19,26.019,-79.591,352.88,-9,1016.63,1013.39,25.14,25.38,36.143,1.33,118.7,30.8,1016.63,60.9,26,355,21.1,344.98,2,-9,9,-9,0.12,7.72,60.87,21.34,-9
AOML_Explorer,Ex0512E,80.0221,21032005,0:31:52,26.028,-79.573,353.28,-9,1016.47,1013.38,25.17,25.42,36.136,1.35,119.29,30.8,1016.47,61.5,25.8,348,19.56,345.54,2,-9,9,-9,0.12,6.61,39.29,21.28,-9
AOML_Explorer,Ex0512E,80.0239,21032005,0:34:25,26.037,-79.555,353.41,-9,1016.49,1013.10,25.18,25.41,36.139,1.36,118.3,30.8,1016.49,61.9,25.6,349,21.1,345.43,2,-9,9,-9,0.13,8.15,44.98,21.27,-9
AOML_Explorer,Ex0512E,80.0257,21032005,0:36:58,26.045,-79.537,353.72,-9,1016.54,1013.39,25.2,25.41,36.143,1.34,118.36,30.8,1016.54,61.9,25.4,347,19.56,345.45,2,-9,9,-9,0.13,6.86,36.97,21.39,-9
AOML_Explorer,Ex0512E,80.0274,21032005,0:39:31,26.054,-79.52,353.81,-9,1016.54,1013.40,25.21,25.42,36.142,1.34,118.24,30.8,1016.54,62,25.4,350,19.56,345.55,2,-9,9,-9,0.12,6.67,45.62,21.25,-9
AOML_Explorer,Ex0512E,80.0292,21032005,0:42:04,26.062,-79.502,353.74,-9,1016.4,1013.37,25.21,25.43,36.14,1.32,118.56,30.8,1016.4,61.8,25.3,344,18.53,345.48,2,-9,9,-9,0.12,6.33,26.04,21.33,-9
AOML_Explorer,Ex0512E,80.031,21032005,0:44:37,26.071,-79.485,353.7,-9,1016.27,1013.11,25.21,25.44,36.146,1.22,119.06,30.8,1016.27,61.7,25.1,352,20.59,345.62,2,-9,9,-9,0.12,7.78,49.78,21.34,-9
AOML_Explorer,Ex0512E,80.0328,21032005,0:47:10,26.08,-79.467,353.51,-9,1016.43,1013.39,25.23,25.46,36.147,1.34,118.21,30.8,1016.43,61.6,25,346,20.07,345.51,2,-9,9,-9,0.12,7.69,35.87,21.2,-9
AOML_Explorer,Ex0512E,80.0345,21032005,0:49:43,26.088,-79.45,353.64,-9,1016.54,1013.69,25.25,25.47,36.151,1.35,118.6,30.8,1016.54,60.6,24.9,354,18.53,345.49,2,-9,9,-9,0.12,5.74,54.49,21.33,-9
AOML_Explorer,Ex0512E,80.0363,21032005,0:52:16,26.097,-79.433,353.85,-9,1016.47,1013.39,25.27,25.49,36.14,1.36,118.7,30.8,1016.47,60.9,24.7,349,19.04,345.65,2,-9,9,-9,0.12,6.61,40.37,21.34,-9
AOML_Explorer,Ex0512E,80.0381,21032005,0:54:49,26.105,-79.416,355.03,-9,1016.54,1013.39,25.27,25.47,36.147,1.34,77.64,30.77,1016.54,61.1,24.6,350,19.56,346.63,2,-9,9,-9,0.12,7.08,44.61,21.2,-9
AOML_Explorer,Ex0512E,80.0398,21032005,0:57:22,26.114,-79.4,357.09,-9,1016.5,1013.65,25.29,25.46,36.121,1.34,78.24,30.77,1016.5,60.2,24.4,347,18.01,348.2,2,-9,9,-9,0.11,5.85,34.57,21.16,-9
AOML_Explorer,Ex0512E,80.0416,21032005,0:59:55,26.123,-79.383,360.09,-9,1016.46,1013.39,25.25,25.47,36.133,1.33,77.53,30.76,1016.46,60.6,24.2,347,19.04,351.72,2,-9,9,-9,0.11,7.01,37.39,21.21,-9
AOML_Explorer,Ex0512E,80.0514,21032005,1:14:01,26.169,-79.291,361.33,-9,1016.64,1013.64,25.28,25.48,36.158,1.35,77.15,30.84,1016.64,61.7,24.5,352,19.04,352.74,2,-9,9,-9,0.12,6.56,48.01,21.24,-9
AOML_Explorer,Ex0512E,80.0532,21032005,1:16:34,26.177,-79.274,362.01,-9,1016.53,1013.39,25.29,25.49,36.166,1.39,77.09,30.85,1016.53,64.6,24.3,346,19.04,353.42,2,-9,9,-9,0.12,7.14,35.05,21.27,-9
AOML_Explorer,Ex0512E,80.0549,21032005,1:19:07,26.183,-79.256,362.57,-9,1016.56,1013.38,25.3,25.47,36.173,1.36,76.67,30.86,1016.56,72.1,24,349,19.56,353.49,2,-9,9,-9,0.12,7.6,48.71,21.14,-9
AOML_Explorer,Ex0512E,80.0567,21032005,1:21:40,26.188,-79.238,363.16,-9,1016.52,1013.09,25.3,25.5,36.168,1.32,77,30.87,1016.52,71.4,24,349,19.04,354.49,2,-9,9,-9,0.11,7.13,46.22,21.23,-9
AOML_Explorer,Ex0512E,80.0585,21032005,1:24:13,26.194,-79.22,363.62,-9,1016.61,1013.63,25.3,25.5,36.193,1.37,76.89,30.88,1016.61,72.4,24,350,19.04,354.97,2,-9,9,-9,0.12,7.1,47.94,21.24,-9
AOML_Explorer,Ex0512E,80.0603,21032005,1:26:46,26.199,-79.202,364.01,-9,1016.54,1013.39,25.32,25.43,36.22,1.37,76.94,30.89,1016.54,72.7,23.9,346,19.56,354.25,2,-9,9,-9,0.12,8.08,39.19,21.3,-9
AOML_Explorer,Ex0512E,80.062,21032005,1:29:19,26.204,-79.184,364.31,-9,1016.6,1013.38,25.28,25.3,36.263,1.36,77.43,30.89,1016.6,73,23.8,351,19.04,353.34,2,-9,9,-9,0.15,7.17,49.52,21.29,-9
AOML_Explorer,Ex0512E,80.0638,21032005,1:31:52,26.209,-79.166,364.43,-9,1016.55,1013.38,25.2,25.28,36.254,1.36,77.27,30.9,1016.55,73.3,23.6,354,19.56,354.27,2,-9,9,-9,0.14,7.58,57.69,21.27,-9
AOML_Explorer,Ex0512E,80.0656,21032005,1:34:25,26.214,-79.149,364.95,-9,1016.64,1013.64,25.13,25.25,36.229,1.35,76.94,30.9,1016.64,73.7,23.6,356,18.53,355.25,2,-9,9,-9,0.14,6.48,61.53,21.24,-9
AOML_Explorer,Ex0512E,80.0673,21032005,1:36:58,26.218,-79.131,365.06,-9,1016.64,1013.65,25.08,25.2,36.244,1.33,77.07,30.91,1016.64,79.9,23.5,346,19.04,355.39,2,-9,9,-9,0.14,7.85,44.34,21.26,-9
AOML_Explorer,Ex0512E,80.0691,21032005,1:39:31,26.219,-79.112,364.93,-9,1016.77,1013.38,25.07,25.15,36.225,1.37,77.31,30.91,1016.77,87.8,23.5,345,18.53,354.98,2,-9,9,-9,0.15,7.54,48.09,21.33,-9
AOML_Explorer,Ex0512E,80.0709,21032005,1:42:04,26.219,-79.094,364.86,-9,1016.65,1013.38,25.05,25.11,36.206,1.36,77.5,30.91,1016.65,94.3,23.3,345,19.56,354.54,2,-9,9,-9,0.14,8.65,56.41,21.3,-9
AOML_Explorer,Ex0512E,80.0727,21032005,1:44:37,26.218,-79.076,364.53,-9,1016.62,1013.65,24.98,25.17,36.203,1.35,77.81,30.91,1016.62,90.8,23.2,350,19.56,355.95,2,-9,9,-9,0.13,8.16,63.61,21.18,-9
AOML_Explorer,Ex0512E,80.0744,21032005,1:47:10,26.218,-79.058,364.01,-9,1016.73,1013.36,24.98,25.19,36.263,1.32,76.58,30.91,1016.73,91,23.3,345,18.01,355.77,2,-9,9,-9,0.25,7.28,47.93,21.23,-9
AOML_Explorer,Ex0512E,80.0762,21032005,1:49:43,26.218,-79.039,363.59,-9,1016.62,1013.37,25,25.13,36.287,1.35,76.11,30.91,1016.62,91.1,23.2,353,19.04,354.24,2,-9,9,-9,0.25,7.43,69.39,21.18,-9
AOML_Explorer,Ex0512E,80.078,21032005,1:52:16,26.218,-79.021,363.94,-9,1016.64,1013.38,25,25.12,36.274,1.36,76.97,30.91,1016.64,91.8,23.1,345,19.56,354.45,2,-9,9,-9,0.21,8.9,51.8,21.26,-9
AOML_Explorer,Ex0512E,80.0797,21032005,1:54:49,26.217,-79.003,364.67,-9,1016.62,1013.35,24.97,25.13,36.266,1.37,77.44,30.91,1016.62,91.8,23.1,348,19.04,355.66,2,-9,9,-9,0.19,8.04,56.84,21.22,-9
AOML_Explorer,Ex0512E,80.0815,21032005,1:57:22,26.217,-78.985,364.7,-9,1016.71,1013.39,24.97,25.13,36.262,1.37,76.98,30.91,1016.71,92.4,23.2,347,18.53,355.82,2,-9,9,-9,0.19,7.72,52.35,21.27,-9
AOML_Explorer,Ex0512E,80.0833,21032005,1:59:55,26.216,-78.967,364.73,-9,1016.69,1013.66,24.97,25.12,36.261,1.35,77.59,30.91,1016.69,93,23.3,347,18.53,355.68,2,-9,9,-9,0.21,7.76,51.52,21.23,-9
AOML_Explorer,Ex0512E,80.0948,21032005,2:16:34,26.206,-78.846,362.39,-9,1016.66,1013.67,24.39,24.04,36.643,1.34,76.72,30.97,1016.66,106.7,23.6,338,19.56,347.25,2,-9,9,-9,0.12,9.67,53.59,21.31,-9
AOML_Explorer,Ex0512E,80.0966,21032005,2:19:07,26.201,-78.828,362.13,-9,1016.63,1013.38,24.09,23.97,36.648,1.35,76.92,30.98,1016.63,107.1,23.2,339,19.04,350.13,2,-9,9,-9,0.12,9.3,54.1,21.36,-9
AOML_Explorer,Ex0512E,80.0984,21032005,2:21:40,26.196,-78.811,361.49,-9,1016.67,1013.65,23.98,24.02,36.629,1.34,76.89,30.99,1016.67,106.7,23.1,340,19.04,351.8,2,-9,9,-9,0.14,9.11,56.35,21.37,-9
AOML_Explorer,Ex0512E,80.1002,21032005,2:24:13,26.192,-78.793,360.99,-9,1016.78,1013.41,23.96,24.01,36.619,1.35,77.34,30.99,1016.78,106.6,23.2,346,20.07,351.34,2,-9,9,-9,0.15,9.12,71.02,21.4,-9
AOML_Explorer,Ex0512E,80.1019,21032005,2:26:46,26.187,-78.776,360.52,-9,1017.02,1013.66,23.95,23.96,36.609,1.34,76.82,30.99,1017.02,108,23.3,344,19.04,350.53,2,-9,9,-9,0.16,8.4,65.36,21.41,-9
AOML_Explorer,Ex0512E,80.1037,21032005,2:29:19,26.182,-78.759,360.13,-9,1016.93,1013.90,23.93,24,36.58,1.33,75.67,30.99,1016.93,107.8,23.3,344,18.53,350.84,2,-9,9,-9,0.12,7.96,63.22,21.37,-9
AOML_Explorer,Ex0512E,80.1055,21032005,2:31:52,26.177,-78.741,359.81,-9,1016.79,1013.89,23.9,24.09,36.562,1.34,76.74,30.99,1016.79,107.9,23.2,336,19.04,352.08,2,-9,9,-9,0.12,9.74,50.51,21.4,-9
AOML_Explorer,Ex0512E,80.1072,21032005,2:34:25,26.172,-78.724,359.05,-9,1016.87,1013.91,23.97,24.07,36.553,1.37,76.66,30.99,1016.87,107.9,23.2,347,18.01,350.27,2,-9,9,-9,0.12,7.13,68.18,21.36,-9
AOML_Explorer,Ex0512E,80.109,21032005,2:36:58,26.167,-78.707,358.66,-9,1016.79,1013.89,23.99,24.07,36.544,1.35,75.96,30.99,1016.79,108.2,23.3,337,18.53,349.4,2,-9,9,-9,0.12,9.16,49.93,21.45,-9
AOML_Explorer,Ex0512E,80.1108,21032005,2:39:31,26.162,-78.689,358.42,-9,1016.85,1013.91,23.99,24.06,36.529,1.33,77,30.98,1016.85,108.2,23.3,343,18.53,349.2,2,-9,9,-9,0.1,8.17,60.8,21.37,-9
AOML_Explorer,Ex0512E,80.1125,21032005,2:42:04,26.156,-78.672,357.92,-9,1016.92,1013.93,23.98,24.05,36.542,1.32,76.39,30.98,1016.92,108.4,23.4,340,17.5,348.77,2,-9,9,-9,0.11,7.79,50.82,21.38,-9
AOML_Explorer,Ex0512E,80.1143,21032005,2:44:37,26.151,-78.655,357.48,-9,1016.95,1013.92,23.98,24.04,36.537,1.34,76.84,30.98,1016.95,108.5,23.4,340,19.04,348.06,2,-9,9,-9,0.11,9.12,56.24,21.4,-9
AOML_Explorer,Ex0512E,80.1161,21032005,2:47:10,26.146,-78.637,357.17,-9,1016.86,1013.92,23.99,24,36.544,1.35,76.7,30.98,1016.86,108.4,23.4,340,19.56,347.18,2,-9,9,-9,0.11,9.58,57.54,21.31,-9
AOML_Explorer,Ex0512E,80.1179,21032005,2:49:43,26.141,-78.62,356.87,-9,1016.92,1014.20,23.96,23.99,36.536,1.33,76.71,30.98,1016.92,108.6,23.5,338,19.04,347.2,2,-9,9,-9,0.1,9.43,52.58,21.31,-9
AOML_Explorer,Ex0512E,80.1196,21032005,2:52:16,26.135,-78.602,356.42,-9,1016.93,1013.93,23.92,23.98,36.6,1.35,76.78,30.98,1016.93,108.2,23.6,342,19.04,347.07,2,-9,9,-9,0.11,8.7,59.44,21.34,-9
AOML_Explorer,Ex0512E,80.1214,21032005,2:54:49,26.13,-78.585,356.13,-9,1016.98,1013.70,23.91,23.97,36.632,1.35,76.49,30.97,1016.98,108.2,23.6,347,19.56,346.9,2,-9,9,-9,0.12,8.4,71.85,21.31,-9
AOML_Explorer,Ex0512E,80.1232,21032005,2:57:22,26.125,-78.567,356.36,-9,1016.93,1013.90,23.91,23.8,36.627,1.35,76.73,30.97,1016.93,107.1,23.5,348,19.04,344.9,2,-9,9,-9,0.11,7.9,69.89,21.31,-9
AOML_Explorer,Ex0512E,80.1249,21032005,2:59:55,26.12,-78.55,356.75,-9,1016.9,1013.93,23.78,23.74,36.639,1.36,77.05,30.97,1016.9,107.2,23.6,341,18.53,346.24,2,-9,9,-9,0.11,8.44,54.65,21.28,-9
AOML_Explorer,Ex0512E,80.1347,21032005,3:14:01,26.094,-78.452,354.48,-9,1017.05,1013.93,23.63,23.65,36.699,1.33,76.65,31.01,1017.05,106.1,23.7,347,19.56,344.96,2,-9,9,-9,0.11,8.3,70.68,21.27,-9
AOML_Explorer,Ex0512E,80.1365,21032005,3:16:34,26.089,-78.434,354.9,-9,1017.01,1013.92,23.59,23.72,36.691,1.35,76.81,31.02,1017.01,106.2,23.8,349,19.56,346.84,2,-9,9,-9,0.11,8.02,75.13,21.33,-9
AOML_Explorer,Ex0512E,80.1383,21032005,3:19:07,26.085,-78.416,354.95,-9,1016.91,1013.91,23.64,23.6,36.712,1.36,76.76,31.02,1016.91,106,23.9,343,18.53,344.57,2,-9,9,-9,0.11,7.85,58.43,21.3,-9
AOML_Explorer,Ex0512E,80.14,21032005,3:21:40,26.08,-78.398,355.28,-9,1016.84,1013.65,23.61,23.54,36.736,1.35,76.72,31.03,1016.84,106,23.8,346,18.53,344.55,2,-9,9,-9,0.11,7.44,65.1,21.28,-9
AOML_Explorer,Ex0512E,80.1418,21032005,3:24:13,26.075,-78.38,355.36,-9,1016.99,1013.65,23.54,23.46,36.739,1.34,76.71,31.03,1016.99,106,23.9,348,19.56,344.52,2,-9,9,-9,0.11,8.09,72.4,21.27,-9
AOML_Explorer,Ex0512E,80.1436,21032005,3:26:46,26.07,-78.362,355.22,-9,1016.92,1013.91,23.46,23.44,36.742,1.34,76.37,31.03,1016.92,106,23.9,344,18.01,345.18,2,-9,9,-9,0.12,7.23,58.83,21.27,-9
AOML_Explorer,Ex0512E,80.1454,21032005,3:29:19,26.066,-78.345,354.64,-9,1016.93,1013.91,23.43,23.45,36.752,1.32,76.52,31.03,1016.93,105.8,23.9,348,18.53,345.28,2,-9,9,-9,0.12,7.09,70.07,21.29,-9
AOML_Explorer,Ex0512E,80.1471,21032005,3:31:52,26.061,-78.326,354.18,-9,1016.98,1013.91,23.42,23.61,36.702,1.31,77.19,31.03,1016.98,104.9,23.9,342,18.01,346.98,2,-9,9,-9,0.12,7.4,55.46,21.37,-9
AOML_Explorer,Ex0512E,80.1489,21032005,3:34:25,26.056,-78.309,353.82,-9,1016.94,1013.92,23.42,23.63,36.744,1.34,77.12,31.02,1016.94,107.1,23.9,346,18.53,346.93,2,-9,9,-9,0.12,7.28,67.99,21.32,-9
AOML_Explorer,Ex0512E,80.1507,21032005,3:36:58,26.052,-78.291,353.7,-9,1016.92,1013.91,23.56,23.69,36.742,1.32,76.74,31.02,1016.92,106.5,24,344,19.04,345.61,2,-9,9,-9,0.12,7.93,65.27,21.34,-9
AOML_Explorer,Ex0512E,80.1524,21032005,3:39:31,26.047,-78.273,354.27,-9,1016.98,1013.92,23.58,23.54,36.768,1.32,76.96,31.02,1016.98,106.3,24,341,19.56,344.04,2,-9,9,-9,0.13,8.85,60.36,21.29,-9
AOML_Explorer,Ex0512E,80.1542,21032005,3:42:04,26.042,-78.255,354.79,-9,1017,1013.91,23.57,23.58,36.73,1.32,76.66,31.02,1017,106.2,23.9,345,19.04,345.11,2,-9,9,-9,0.12,7.84,67.17,21.35,-9
AOML_Explorer,Ex0512E,80.156,21032005,3:44:37,26.037,-78.237,355.06,-9,1017.03,1014.16,23.47,23.65,36.765,1.34,76.66,31.01,1017.03,106.6,23.9,344,18.01,347.66,2,-9,9,-9,0.12,7.08,61.57,21.36,-9
AOML_Explorer,Ex0512E,80.1578,21032005,3:47:10,26.032,-78.219,354.82,-9,1017,1014.15,23.59,23.65,36.743,1.31,77.03,31.01,1017,106.5,23.9,345,17.5,345.83,2,-9,9,-9,0.11,6.45,62.08,21.45,-9
AOML_Explorer,Ex0512E,80.1595,21032005,3:49:43,26.028,-78.201,355.31,-9,1016.97,1014.17,23.58,23.69,36.678,1.32,76.79,31.01,1016.97,106.4,23.8,344,16.99,346.87,2,-9,9,-9,0.12,6.18,57.91,21.49,-9
AOML_Explorer,Ex0512E,80.1613,21032005,3:52:16,26.023,-78.183,355.4,-9,1016.93,1013.64,23.6,23.69,36.683,1.34,76.92,31,1016.93,106.2,23.8,346,18.53,346.75,2,-9,9,-9,0.12,7.24,68.72,21.46,-9
AOML_Explorer,Ex0512E,80.1631,21032005,3:54:49,26.018,-78.165,355.1,-9,1016.86,1013.90,23.62,23.63,36.665,1.31,76.49,31,1016.86,106.4,23.7,342,18.01,345.24,2,-9,9,-9,0.11,7.41,58.37,21.45,-9
AOML_Explorer,Ex0512E,80.1648,21032005,3:57:22,26.013,-78.148,354.94,-9,1017.06,1013.92,23.6,23.65,36.675,1.33,76.88,30.99,1017.06,109.5,23.5,350,17.5,345.75,2,-9,9,-9,0.11,5.89,81.08,21.42,-9
AOML_Explorer,Ex0512E,80.1666,21032005,3:59:55,26.008,-78.131,354.59,-9,1016.86,1014.16,23.58,23.71,36.658,1.34,77.15,30.99,1016.86,108.7,23.5,344,17.5,346.46,2,-9,9,-9,0.11,6.67,64.37,21.43,-9
AOML_Explorer,Ex0512E,80.1764,21032005,4:14:01,25.975,-78.036,353.84,-9,1016.9,1013.93,23.79,23.98,36.591,1.31,76.57,31.03,1016.9,110.7,23.3,350,18.01,346.46,2,-9,9,-9,0.15,6.41,86.05,21.47,-9
AOML_Explorer,Ex0512E,80.1782,21032005,4:16:34,25.971,-78.018,354.57,-9,1016.79,1013.93,23.89,24.33,36.431,1.33,77.38,31.04,1016.79,103.8,23.2,352,16.99,350.26,2,-9,9,-9,0.12,5.19,87.6,21.47,-9
AOML_Explorer,Ex0512E,80.1799,21032005,4:19:07,25.967,-78.001,355.55,-9,1016.83,1013.90,23.93,24.48,36.412,1.34,77.17,31.04,1016.83,103.7,23.2,355,16.47,352.62,2,-9,9,-9,0.14,4.55,97.75,21.59,-9
AOML_Explorer,Ex0512E,80.1817,21032005,4:21:40,25.963,-77.983,356.27,-9,1016.74,1013.91,24.29,24.68,36.296,1.3,76.14,31.04,1016.74,104.8,23.1,357,17.5,350.95,2,-9,9,-9,0.14,5.61,106.54,21.44,-9
AOML_Explorer,Ex0512E,80.1835,21032005,4:24:13,25.958,-77.966,356.82,-9,1016.77,1013.93,24.36,24.74,36.308,1.32,76.78,31.04,1016.77,107.5,23,348,17.5,351.35,2,-9,9,-9,0.14,6.13,79.81,21.31,-9
AOML_Explorer,Ex0512E,80.1853,21032005,4:26:46,25.953,-77.949,356.64,-9,1016.79,1013.93,24.54,24.79,36.298,1.3,76.55,31.04,1016.79,107.7,23,344,17.5,349.38,2,-9,9,-9,0.12,6.6,69.28,21.31,-9
AOML_Explorer,Ex0512E,80.187,21032005,4:29:19,25.948,-77.931,356.36,-9,1016.8,1013.92,24.59,24.74,36.327,1.33,76.8,31.04,1016.8,108.2,23,349,16.99,347.74,2,-9,9,-9,0.14,5.64,79.1,21.31,-9
AOML_Explorer,Ex0512E,80.1888,21032005,4:31:52,25.943,-77.914,356.7,-9,1016.67,1013.94,24.62,24.69,36.33,1.32,77.46,31.03,1016.67,108.9,23,347,17.5,346.97,2,-9,9,-9,0.12,6.37,75.16,21.34,-9
AOML_Explorer,Ex0512E,80.1906,21032005,4:34:25,25.938,-77.897,356.57,-9,1016.69,1013.64,24.55,24.67,36.337,1.33,76.94,31.03,1016.69,107,22.8,355,16.99,347.63,2,-9,9,-9,0.13,5.39,91.13,21.37,-9
AOML_Explorer,Ex0512E,80.1923,21032005,4:36:58,25.933,-77.88,356.11,-9,1016.67,1013.92,24.55,24.81,36.293,1.29,76.51,31.03,1016.67,108.4,22.8,348,16.47,348.92,2,-9,9,-9,0.12,5.62,68.98,21.26,-9
AOML_Explorer,Ex0512E,80.1941,21032005,4:39:31,25.928,-77.863,355.95,-9,1016.67,1013.90,24.59,24.81,36.334,1.3,77.04,31.02,1016.67,107.8,23,352,15.44,348.32,2,-9,9,-9,0.12,4.08,75.59,21.24,-9
AOML_Explorer,Ex0512E,80.1959,21032005,4:42:04,25.923,-77.846,356,-9,1016.63,1013.64,24.68,24.77,36.343,1.32,76.92,31.01,1016.63,107.8,23,353,18.01,346.53,2,-9,9,-9,0.12,6.43,87.91,21.24,-9
AOML_Explorer,Ex0512E,80.1977,21032005,4:44:37,25.918,-77.829,357.06,-9,1016.6,1013.63,24.65,24.77,36.333,1.32,76.48,31.01,1016.6,108.4,23,347,16.99,347.87,2,-9,9,-9,0.12,6.12,68.41,21.27,-9
AOML_Explorer,Ex0512E,80.1994,21032005,4:47:10,25.913,-77.812,358.1,-9,1016.66,1013.94,24.63,24.78,36.321,1.31,76.59,31,1016.66,108.5,23,357,17.5,349.46,2,-9,9,-9,0.14,5.75,96.42,21.24,-9
AOML_Explorer,Ex0512E,80.2012,21032005,4:49:43,25.908,-77.794,358.63,-9,1016.65,1013.67,24.62,24.79,36.321,1.33,76.56,31,1016.65,106.5,23,352,17.5,350.18,2,-9,9,-9,0.15,6.1,79.73,21.25,-9
AOML_Explorer,Ex0512E,80.203,21032005,4:52:16,25.903,-77.777,359.1,-9,1016.66,1013.91,24.65,24.79,36.327,1.34,76.95,31,1016.66,107,22.9,356,16.99,350.3,2,-9,9,-9,0.12,5.36,90.01,21.23,-9
AOML_Explorer,Ex0512E,80.2047,21032005,4:54:49,25.898,-77.76,359.36,-9,1016.59,1013.94,24.65,24.82,36.339,1.34,76.85,30.99,1016.59,105.8,23,356,16.99,350.75,2,-9,9,-9,0.12,5.27,90.98,21.23,-9
AOML_Explorer,Ex0512E,80.2065,21032005,4:57:22,25.894,-77.743,359.56,-9,1016.66,1014.17,24.65,24.83,36.318,1.29,76.7,30.99,1016.66,105.9,23,2,17.5,351.18,2,-9,9,-9,0.16,5.68,111.76,21.17,-9
AOML_Explorer,Ex0512E,80.2083,21032005,4:59:55,25.89,-77.725,359.74,-9,1016.7,1013.92,24.69,24.85,36.319,1.28,75.37,30.99,1016.7,105.9,22.9,352,15.96,351.19,2,-9,9,-9,0.15,4.63,75.62,21.24,-9
AOML_Explorer,Ex0512E,80.2181,21032005,5:14:01,25.865,-77.632,359.44,-9,1016.48,1013.66,24.69,24.78,36.388,1.29,77.35,31.03,1016.48,106.6,22.2,348,16.47,349.88,2,-9,9,-9,0.11,5.98,66.74,21.18,-9
AOML_Explorer,Ex0512E,80.2198,21032005,5:16:34,25.86,-77.615,360.21,-9,1016.55,1013.64,24.71,24.61,36.42,1.27,76.96,31.04,1016.55,106.1,22.4,352,17.5,348.03,2,-9,9,-9,0.12,6.32,82.44,21.24,-9
AOML_Explorer,Ex0512E,80.2216,21032005,5:19:07,25.856,-77.598,361.09,-9,1016.47,1013.67,24.57,24.59,36.415,1.28,76.83,31.05,1016.47,106.5,22.4,351,18.01,350.67,2,-9,9,-9,0.11,6.88,81.8,21.18,-9
AOML_Explorer,Ex0512E,80.2234,21032005,5:21:40,25.851,-77.581,361.65,-9,1016.46,1013.67,24.5,24.57,36.408,1.29,76.34,31.05,1016.46,106.8,22.3,355,16.47,351.95,2,-9,9,-9,0.12,5.16,89.54,21.17,-9
AOML_Explorer,Ex0512E,80.2252,21032005,5:24:13,25.847,-77.564,361.96,-9,1016.49,1013.65,24.46,24.56,36.415,1.28,77.12,31.05,1016.49,106.8,22.2,350,15.44,352.48,2,-9,9,-9,0.11,4.64,71.27,21.12,-9
AOML_Explorer,Ex0512E,80.2269,21032005,5:26:46,25.842,-77.548,361.98,-9,1016.57,1013.67,24.45,24.52,36.418,1.3,75.84,31.05,1016.57,106.2,22.2,355,18.01,352.24,2,-9,9,-9,0.11,6.7,93.27,21.07,-9
AOML_Explorer,Ex0512E,80.2287,21032005,5:29:19,25.838,-77.531,361.93,-9,1016.48,1013.67,24.43,24.5,36.413,1.29,76.97,31.05,1016.48,106.5,22.2,352,16.99,352.14,2,-9,9,-9,0.12,5.85,84.34,21.18,-9
AOML_Explorer,Ex0512E,80.2305,21032005,5:31:52,25.833,-77.514,361.85,-9,1016.35,1013.35,24.4,24.49,36.413,1.31,76.22,31.05,1016.35,107.6,22.2,349,18.53,352.23,2,-9,9,-9,0.11,7.6,80.82,21.18,-9
AOML_Explorer,Ex0512E,80.2322,21032005,5:34:25,25.828,-77.498,361.67,-9,1016.41,1013.67,24.39,24.46,36.432,1.28,76.57,31.05,1016.41,107.2,22.2,356,16.47,351.95,2,-9,9,-9,0.14,5.11,96.21,21.14,-9
AOML_Explorer,Ex0512E,80.234,21032005,5:36:58,25.823,-77.481,361.53,-9,1016.39,1013.66,24.37,24.45,36.448,1.29,76.51,31.04,1016.39,107.6,22.3,357,16.99,351.85,2,-9,9,-9,0.13,5.54,99.76,21.11,-9
AOML_Explorer,Ex0512E,80.2358,21032005,5:39:31,25.819,-77.464,361.24,-9,1016.39,1013.67,24.36,24.42,36.446,1.3,77.21,31.04,1016.39,107.4,22.1,347,16.47,351.37,2,-9,9,-9,0.12,5.89,70.63,21.16,-9
AOML_Explorer,Ex0512E,80.2375,21032005,5:42:04,25.814,-77.448,361.32,-9,1016.38,1013.64,24.32,24.51,36.423,1.27,76.62,31.04,1016.38,107.2,21.9,357,16.47,353.2,2,-9,9,-9,0.11,5.22,100.25,21.03,-9
AOML_Explorer,Ex0512E,80.2393,21032005,5:44:37,25.809,-77.432,360.98,-9,1016.39,1013.67,24.36,24.57,36.403,1.29,76.35,31.03,1016.39,107.1,21.9,352,16.47,353.02,2,-9,9,-9,0.11,5.48,84.82,21.03,-9
AOML_Explorer,Ex0512E,80.2411,21032005,5:47:10,25.805,-77.415,360.67,-9,1016.41,1013.67,24.41,24.53,36.414,1.29,76.95,31.03,1016.41,107.3,21.9,353,16.99,351.51,2,-9,9,-9,0.12,5.91,89.15,21.06,-9
AOML_Explorer,Ex0512E,80.2429,21032005,5:49:43,25.8,-77.399,360.61,-9,1016.47,1013.39,24.43,24.36,36.477,1.28,76.67,31.03,1016.47,106.5,22.2,344,17.5,349.02,2,-9,9,-9,0.12,7.1,67.09,21.14,-9
AOML_Explorer,Ex0512E,80.2446,21032005,5:52:16,25.795,-77.382,360.49,-9,1016.56,1013.67,24.37,24.48,36.417,1.29,77.26,31.02,1016.56,107.4,22.3,356,16.99,351.27,2,-9,9,-9,0.11,5.57,96.63,21.05,-9
AOML_Explorer,Ex0512E,80.2464,21032005,5:54:49,25.791,-77.365,360.28,-9,1016.44,1013.41,24.36,24.5,36.399,1.3,76.59,31.02,1016.44,108.1,22.4,353,18.53,351.6,2,-9,9,-9,0.11,7.22,90.14,21.16,-9
AOML_Explorer,Ex0512E,80.2482,21032005,5:57:22,25.786,-77.348,360.06,-9,1016.52,1013.39,24.37,24.56,36.386,1.3,77.11,31.02,1016.52,108.1,22.5,343,16.99,351.89,2,-9,9,-9,0.11,6.81,61.38,21.04,-9
AOML_Explorer,Ex0512E,80.2499,21032005,5:59:55,25.781,-77.331,359.64,-9,1016.46,1013.67,24.41,24.59,36.393,1.27,76.41,31.01,1016.46,108,22.6,348,16.47,351.37,2,-9,9,-9,0.11,5.61,71.15,21.02,-9
AOML_Explorer,Ex0512E,80.2597,21032005,6:14:01,25.754,-77.236,358.54,-9,1016.31,1013.38,24.52,24.65,36.397,1.28,77.05,31.06,1016.31,100.7,23.1,350,18.53,349.46,2,-9,9,-9,0.12,7.25,70.67,21.01,-9
AOML_Explorer,Ex0512E,80.2615,21032005,6:16:34,25.752,-77.218,359.46,-9,1016.34,1013.40,24.51,24.66,36.403,1.28,75.88,31.07,1016.34,95.9,23.2,351,15.96,350.71,2,-9,9,-9,0.13,4.68,59.54,20.99,-9
AOML_Explorer,Ex0512E,80.2633,21032005,6:19:07,25.75,-77.2,360.22,-9,1016.26,1013.37,24.52,24.69,36.398,1.29,76.63,31.07,1016.26,94.8,23.3,352,17.5,351.64,2,-9,9,-9,0.11,6.02,65.79,20.98,-9
AOML_Explorer,Ex0512E,80.265,21032005,6:21:40,25.749,-77.182,360.74,-9,1016.34,1013.66,24.55,24.63,36.397,1.3,76.18,31.07,1016.34,93.9,23.4,356,16.99,351.08,2,-9,9,-9,0.11,5.17,76.02,21,-9
AOML_Explorer,Ex0512E,80.2668,21032005,6:24:13,25.748,-77.164,361.19,-9,1016.26,1013.67,24.54,24.58,36.408,1.33,76.54,31.07,1016.26,93.7,23.3,0,16.99,350.93,2,-9,9,-9,0.11,5.01,87.42,20.93,-9
AOML_Explorer,Ex0512E,80.2686,21032005,6:26:46,25.747,-77.145,361.35,-9,1016.16,1013.40,24.49,24.41,36.45,1.32,76.17,31.07,1016.16,93.9,23.2,355,15.96,349.41,2,-9,9,-9,0.16,4.35,67.44,20.91,-9
AOML_Explorer,Ex0512E,80.2704,21032005,6:29:19,25.746,-77.127,361.38,-9,1016.26,1013.38,24.42,24.45,36.425,1.31,76.97,31.07,1016.26,94.3,23.1,352,16.47,350.95,2,-9,9,-9,0.13,5.19,60.9,20.88,-9
AOML_Explorer,Ex0512E,80.2721,21032005,6:31:52,25.745,-77.109,361.26,-9,1016.2,1013.38,24.31,24.43,36.434,1.32,77.05,31.06,1016.2,93,23,357,17.5,352.08,2,-9,9,-9,0.13,5.75,80.77,20.94,-9
AOML_Explorer,Ex0512E,80.2739,21032005,6:34:25,25.744,-77.091,360.95,-9,1016.24,1013.38,24.31,24.57,36.418,1.34,77.1,31.06,1016.24,93.6,23.1,352,16.47,353.67,2,-9,9,-9,0.12,5.15,62.83,20.9,-9